| time (UTC) | temp F | wind direction | speed MPH | gust MPH | rain 1hr in | rain 24hr in | rain mn in | humidity % | barometer mb |
| 20260831092306 | 66 | 82 | 4.0 | 5.0 | 0.00 | 0.34 | 0.34 | 95 | 1015.5 |
| 20260831092156 | 66 | 72 | 5.0 | 6.0 | 0.00 | 0.34 | 0.34 | 95 | 1015.5 |
| 20260831091707 | 66 | 81 | 2.0 | 3.0 | 0.00 | 0.34 | 0.34 | 95 | 1015.8 |
| 20260831091303 | 66 | 81 | 1.0 | 3.0 | 0.00 | 0.34 | 0.34 | 94 | 1016.1 |
| 20260831091200 | 66 | 81 | 0.0 | 3.0 | 0.00 | 0.34 | 0.34 | 94 | 1016.1 |
| 20260831090707 | 66 | 81 | 0.0 | 4.0 | 0.00 | 0.34 | 0.34 | 94 | 1016.3 |
| 20260831090303 | 66 | 81 | 1.0 | 5.0 | 0.01 | 0.34 | 0.34 | 94 | 1016.4 |
| 20260831090155 | 66 | 81 | 1.0 | 5.0 | 0.01 | 0.34 | 0.34 | 94 | 1016.4 |
| 20260831085706 | 66 | 75 | 4.0 | 4.0 | 0.01 | 0.34 | 0.34 | 94 | 1016.4 |
| 20260831085306 | 66 | 82 | 3.0 | 6.0 | 0.01 | 0.34 | 0.34 | 94 | 1016.5 |
| 20260831085234 | 66 | 82 | 2.0 | 7.0 | 0.01 | 0.34 | 0.34 | 94 | 1016.5 |
| 20260831084703 | 66 | 67 | 3.0 | 7.0 | 0.01 | 0.34 | 0.34 | 94 | 1016.5 |
| 20260831084319 | 66 | 61 | 6.0 | 8.0 | 0.01 | 0.34 | 0.34 | 95 | 1016.6 |
| 20260831084210 | 66 | 65 | 6.0 | 8.0 | 0.01 | 0.34 | 0.34 | 95 | 1016.5 |
| 20260831083700 | 65 | 35 | 5.0 | 6.0 | 0.01 | 0.34 | 0.34 | 95 | 1016.6 |
| 20260831083257 | 65 | 56 | 2.0 | 4.0 | 0.02 | 0.34 | 0.34 | 95 | 1016.7 |
| 20260831083210 | 65 | 317 | 2.0 | 6.0 | 0.02 | 0.34 | 0.34 | 95 | 1016.8 |
| 20260831082658 | 65 | 10 | 2.0 | 9.0 | 0.02 | 0.34 | 0.34 | 95 | 1017.0 |
| 20260831082313 | 65 | 344 | 5.0 | 9.0 | 0.03 | 0.34 | 0.34 | 95 | 1016.9 |
| 20260831082208 | 65 | 328 | 5.0 | 9.0 | 0.03 | 0.34 | 0.34 | 95 | 1016.9 |
| 20260831081718 | 65 | 349 | 5.0 | 8.0 | 0.05 | 0.34 | 0.34 | 95 | 1017.1 |
| 20260831081309 | 65 | 355 | 5.0 | 8.0 | 0.06 | 0.34 | 0.34 | 95 | 1017.6 |
| 20260831081205 | 65 | 355 | 5.0 | 6.0 | 0.06 | 0.34 | 0.34 | 95 | 1017.6 |
| 20260831080713 | 65 | 299 | 1.0 | 4.0 | 0.07 | 0.34 | 0.34 | 94 | 1018.0 |
| 20260831080309 | 65 | 326 | 1.0 | 9.0 | 0.09 | 0.33 | 0.33 | 94 | 1018.0 |
| 20260831080202 | 65 | 326 | 2.0 | 10.0 | 0.09 | 0.33 | 0.33 | 94 | 1018.0 |
| 20260831075712 | 65 | 56 | 3.0 | 11.0 | 0.15 | 0.33 | 0.33 | 94 | 1017.6 |
| 20260831075309 | 65 | 62 | 8.0 | 11.0 | 0.17 | 0.33 | 0.33 | 94 | 1017.4 |
| 20260831075222 | 65 | 86 | 8.0 | 11.0 | 0.21 | 0.33 | 0.33 | 93 | 1017.4 |
| 20260831074710 | 65 | 103 | 9.0 | 11.0 | 0.27 | 0.33 | 0.33 | 94 | 1017.4 |
| 20260831074307 | 65 | 78 | 7.0 | 10.0 | 0.32 | 0.33 | 0.33 | 94 | 1017.6 |
| 20260831074159 | 65 | 85 | 5.0 | 10.0 | 0.32 | 0.33 | 0.33 | 94 | 1017.6 |
| 20260831073709 | 65 | 55 | 7.0 | 11.0 | 0.32 | 0.33 | 0.33 | 94 | 1017.6 |
| 20260831073306 | 66 | 62 | 6.0 | 11.0 | 0.31 | 0.32 | 0.32 | 94 | 1017.7 |
| 20260831073201 | 66 | 30 | 6.0 | 11.0 | 0.31 | 0.32 | 0.32 | 94 | 1017.8 |
| 20260831072711 | 66 | 48 | 4.0 | 12.0 | 0.31 | 0.32 | 0.32 | 93 | 1017.6 |
| 20260831072321 | 66 | 18 | 9.0 | 12.0 | 0.30 | 0.31 | 0.31 | 93 | 1017.4 |
| 20260831072155 | 66 | 34 | 8.0 | 12.0 | 0.30 | 0.31 | 0.31 | 93 | 1017.4 |
| 20260831071706 | 66 | 34 | 5.0 | 11.0 | 0.28 | 0.29 | 0.29 | 93 | 1018.0 |
| 20260831071305 | 66 | 12 | 7.0 | 11.0 | 0.27 | 0.28 | 0.28 | 93 | 1017.9 |
| 20260831071157 | 66 | 18 | 7.0 | 11.0 | 0.27 | 0.28 | 0.28 | 93 | 1017.9 |
| 20260831070727 | 66 | 23 | 6.0 | 10.0 | 0.26 | 0.27 | 0.27 | 93 | 1017.9 |
| 20260831070303 | 66 | 5 | 6.0 | 10.0 | 0.24 | 0.24 | 0.24 | 91 | 1018.0 |
| 20260831070155 | 66 | 15 | 6.0 | 11.0 | 0.24 | 0.24 | 0.24 | 91 | 1018.1 |
| 20260831065705 | 66 | 282 | 6.0 | 15.0 | 0.18 | 0.18 | 0.18 | 90 | 1019.1 |
| 20260831065301 | 67 | 327 | 7.0 | 15.0 | 0.14 | 0.14 | 0.14 | 89 | 1018.6 |
| 20260831065154 | 67 | 355 | 9.0 | 15.0 | 0.10 | 0.10 | 0.10 | 89 | 1018.4 |
| 20260831064706 | 67 | 327 | 11.0 | 17.0 | 0.05 | 0.05 | 0.05 | 87 | 1017.6 |
| 20260831064259 | 67 | 16 | 12.0 | 17.0 | 0.01 | 0.01 | 0.01 | 86 | 1017.3 |
| 20260831064212 | 67 | 45 | 10.0 | 17.0 | 0.01 | 0.01 | 0.01 | 86 | 1017.3 |
| 20260831063705 | 67 | 355 | 9.0 | 18.0 | 0.01 | 0.01 | 0.01 | 85 | 1017.0 |
| 20260831063257 | 67 | 38 | 12.0 | 19.0 | 0.01 | 0.01 | 0.01 | 85 | 1016.9 |
| 20260831063235 | 67 | 360 | 14.0 | 19.0 | 0.01 | 0.01 | 0.01 | 85 | 1016.8 |
| 20260831062702 | 68 | 27 | 15.0 | 27.0 | 0.01 | 0.01 | 0.01 | 85 | 1016.8 |
| 20260831062258 | 67 | 12 | 13.0 | 28.0 | 0.01 | 0.01 | 0.01 | 86 | 1016.8 |
| 20260831062211 | 67 | 35 | 16.0 | 28.0 | 0.01 | 0.01 | 0.01 | 86 | 1016.8 |
| 20260831061659 | 66 | 26 | 21.0 | 28.0 | 0.01 | 0.01 | 0.01 | 87 | 1016.7 |
| 20260831061312 | 66 | 346 | 17.0 | 38.0 | 0.01 | 0.01 | 0.01 | 86 | 1017.0 |
| 20260831061205 | 66 | 22 | 19.0 | 38.0 | 0.01 | 0.01 | 0.01 | 86 | 1016.9 |
| 20260831060654 | 67 | 9 | 25.0 | 38.0 | 0.01 | 0.01 | 0.01 | 85 | 1017.1 |
| 20260831060331 | 68 | 5 | 23.0 | 48.0 | 0.00 | 0.00 | 0.00 | 86 | 1016.8 |
| 20260831060203 | 68 | 355 | 25.0 | 48.0 | 0.00 | 0.00 | 0.00 | 85 | 1016.9 |
| 20260831055713 | 70 | 329 | 30.0 | 48.0 | 0.00 | 0.00 | 0.00 | 78 | 1016.7 |
| 20260831055328 | 71 | 340 | 31.0 | 45.0 | 0.00 | 0.00 | 0.00 | 76 | 1016.7 |
| 20260831055159 | 72 | 331 | 31.0 | 45.0 | 0.00 | 0.00 | 0.00 | 76 | 1016.7 |
| 20260831054709 | 73 | 284 | 15.0 | 29.0 | 0.00 | 0.00 | 0.00 | 72 | 1017.6 |
| 20260831054305 | 73 | 264 | 13.0 | 20.0 | 0.00 | 0.00 | 0.00 | 67 | 1017.6 |
| 20260831054157 | 73 | 274 | 12.0 | 18.0 | 0.00 | 0.00 | 0.00 | 67 | 1017.6 |
| 20260831053711 | 73 | 226 | 7.0 | 13.0 | 0.00 | 0.00 | 0.00 | 65 | 1017.3 |
| 20260831053325 | 73 | 309 | 4.0 | 8.0 | 0.00 | 0.00 | 0.00 | 65 | 1017.1 |
| 20260831053201 | 73 | 302 | 4.0 | 8.0 | 0.00 | 0.00 | 0.00 | 66 | 1017.0 |
| 20260831052710 | 73 | 335 | 3.0 | 6.0 | 0.00 | 0.00 | 0.00 | 68 | 1016.8 |
| 20260831052307 | 74 | 355 | 2.0 | 4.0 | 0.00 | 0.00 | 0.00 | 67 | 1016.6 |
| 20260831052200 | 74 | 29 | 2.0 | 4.0 | 0.00 | 0.00 | 0.00 | 67 | 1016.6 |
| 20260831051711 | 74 | 46 | 3.0 | 7.0 | 0.00 | 0.00 | 0.00 | 67 | 1016.7 |
| 20260831051308 | 74 | 25 | 3.0 | 7.0 | 0.00 | 0.00 | 0.00 | 67 | 1016.6 |
| 20260831051201 | 74 | 5 | 4.0 | 9.0 | 0.00 | 0.00 | 0.00 | 66 | 1016.6 |
| 20260831050711 | 74 | 30 | 5.0 | 10.0 | 0.00 | 0.00 | 0.00 | 67 | 1016.2 |
| 20260831050308 | 74 | 336 | 6.0 | 10.0 | 0.00 | 0.00 | 0.00 | 68 | 1016.3 |
| 20260831050221 | 74 | 327 | 5.0 | 10.0 | 0.00 | 0.00 | 0.00 | 68 | 1016.3 |
| 20260831045709 | 74 | 360 | 5.0 | 10.0 | 0.00 | 0.00 | 0.00 | 67 | 1016.4 |
| 20260831045306 | 74 | 5 | 6.0 | 10.0 | 0.00 | 0.00 | 0.00 | 68 | 1016.4 |
| 20260831045158 | 74 | 347 | 6.0 | 10.0 | 0.00 | 0.00 | 0.00 | 68 | 1016.4 |
| 20260831044713 | 74 | 329 | 5.0 | 8.0 | 0.00 | 0.00 | 0.00 | 68 | 1016.5 |
| 20260831044305 | 74 | 344 | 5.0 | 9.0 | 0.00 | 0.00 | 0.00 | 68 | 1016.4 |
| 20260831044201 | 74 | 331 | 4.0 | 9.0 | 0.00 | 0.00 | 0.00 | 67 | 1016.4 |
| 20260831043710 | 74 | 337 | 5.0 | 9.0 | 0.00 | 0.00 | 0.00 | 67 | 1016.5 |
| 20260831043308 | 74 | 338 | 5.0 | 9.0 | 0.00 | 0.00 | 0.00 | 67 | 1016.5 |
| 20260831043201 | 74 | 329 | 5.0 | 9.0 | 0.00 | 0.00 | 0.00 | 67 | 1016.4 |
| 20260831042731 | 74 | 360 | 4.0 | 9.0 | 0.00 | 0.00 | 0.00 | 66 | 1016.2 |
| 20260831042307 | 74 | 14 | 6.0 | 9.0 | 0.00 | 0.00 | 0.00 | 66 | 1016.1 |
| 20260831042158 | 74 | 333 | 6.0 | 12.0 | 0.00 | 0.00 | 0.00 | 66 | 1016.0 |
| 20260831041709 | 74 | 5 | 6.0 | 14.0 | 0.00 | 0.00 | 0.00 | 66 | 1015.5 |
| 20260831041306 | 74 | 360 | 7.0 | 14.0 | 0.00 | 0.00 | 0.00 | 66 | 1015.4 |
| 20260831041219 | 74 | 32 | 7.0 | 14.0 | 0.00 | 0.00 | 0.00 | 66 | 1015.4 |
| 20260831040707 | 74 | 355 | 7.0 | 14.0 | 0.00 | 0.00 | 0.00 | 66 | 1015.3 |
| 20260831040303 | 74 | 335 | 7.0 | 15.0 | 0.00 | 0.00 | 0.00 | 66 | 1015.4 |
| 20260831040155 | 74 | 15 | 7.0 | 15.0 | 0.00 | 0.00 | 0.00 | 66 | 1015.4 |
| 20260831035725 | 74 | 329 | 10.0 | 17.0 | 0.00 | 0.00 | 0.00 | 65 | 1015.6 |
| 20260831035301 | 74 | 61 | 11.0 | 17.0 | 0.00 | 0.00 | 0.00 | 66 | 1015.5 |
| 20260831035234 | 74 | 27 | 10.0 | 17.0 | 0.00 | 0.00 | 0.00 | 66 | 1015.5 |
| 20260831034702 | 74 | 351 | 10.0 | 15.0 | 0.00 | 0.00 | 0.00 | 67 | 1015.3 |
| 20260831034258 | 74 | 11 | 9.0 | 14.0 | 0.00 | 0.00 | 0.00 | 67 | 1015.3 |
| 20260831034213 | 74 | 355 | 9.0 | 14.0 | 0.00 | 0.00 | 0.00 | 67 | 1015.3 |
| 20260831033703 | 74 | 20 | 11.0 | 15.0 | 0.00 | 0.00 | 0.00 | 67 | 1015.3 |
| 20260831033258 | 74 | 360 | 11.0 | 15.0 | 0.00 | 0.00 | 0.00 | 67 | 1015.4 |
| 20260831033211 | 74 | 346 | 11.0 | 15.0 | 0.00 | 0.00 | 0.00 | 67 | 1015.4 |
| 20260831032721 | 74 | 341 | 11.0 | 15.0 | 0.00 | 0.00 | 0.00 | 66 | 1015.5 |
| 20260831032314 | 75 | 360 | 11.0 | 15.0 | 0.00 | 0.00 | 0.00 | 66 | 1015.3 |
| 20260831032207 | 75 | 11 | 9.0 | 15.0 | 0.00 | 0.00 | 0.00 | 66 | 1015.3 |
| 20260831031736 | 75 | 344 | 8.0 | 17.0 | 0.00 | 0.00 | 0.00 | 65 | 1015.0 |
| 20260831031311 | 75 | 5 | 11.0 | 18.0 | 0.00 | 0.00 | 0.00 | 64 | 1014.9 |
| 20260831031204 | 76 | 5 | 11.0 | 18.0 | 0.00 | 0.00 | 0.00 | 63 | 1014.8 |
| 20260831030714 | 76 | 333 | 12.0 | 18.0 | 0.00 | 0.00 | 0.00 | 62 | 1015.0 |
| 20260831030311 | 76 | 5 | 13.0 | 18.0 | 0.00 | 0.00 | 0.00 | 61 | 1015.2 |
| 20260831030204 | 77 | 350 | 13.0 | 18.0 | 0.00 | 0.00 | 0.00 | 60 | 1015.1 |
| 20260831025714 | 77 | 338 | 11.0 | 20.0 | 0.00 | 0.00 | 0.00 | 59 | 1015.2 |
| 20260831025311 | 78 | 350 | 14.0 | 23.0 | 0.00 | 0.00 | 0.00 | 59 | 1015.2 |
| 20260831025204 | 78 | 341 | 14.0 | 23.0 | 0.00 | 0.00 | 0.00 | 59 | 1015.1 |
| 20260831024658 | 78 | 350 | 15.0 | 28.0 | 0.00 | 0.00 | 0.00 | 57 | 1015.0 |
| 20260831024332 | 79 | 334 | 16.0 | 28.0 | 0.00 | 0.00 | 0.00 | 56 | 1014.9 |
| 20260831024227 | 79 | 314 | 17.0 | 28.0 | 0.00 | 0.00 | 0.00 | 55 | 1014.9 |
| 20260831023656 | 79 | 321 | 16.0 | 25.0 | 0.00 | 0.00 | 0.00 | 57 | 1014.8 |
| 20260831023313 | 79 | 321 | 18.0 | 25.0 | 0.00 | 0.00 | 0.00 | 58 | 1014.8 |
| 20260831023206 | 79 | 308 | 16.0 | 23.0 | 0.00 | 0.00 | 0.00 | 58 | 1014.8 |
| 20260831022656 | 79 | 151 | 1.0 | 4.0 | 0.00 | 0.00 | 0.00 | 65 | 1014.6 |
| 20260831022334 | 80 | 147 | 3.0 | 4.0 | 0.00 | 0.00 | 0.00 | 63 | 1014.4 |
| 20260831022205 | 80 | 140 | 3.0 | 5.0 | 0.00 | 0.00 | 0.00 | 64 | 1014.4 |
| 20260831021655 | 80 | 111 | 2.0 | 6.0 | 0.00 | 0.00 | 0.00 | 62 | 1014.3 |
| 20260831021311 | 80 | 84 | 4.0 | 6.0 | 0.00 | 0.00 | 0.00 | 63 | 1014.0 |
| 20260831021204 | 80 | 86 | 4.0 | 6.0 | 0.00 | 0.00 | 0.00 | 62 | 1014.0 |
| 20260831020714 | 81 | 78 | 4.0 | 5.0 | 0.00 | 0.00 | 0.00 | 62 | 1013.9 |
| 20260831020308 | 81 | 70 | 3.0 | 5.0 | 0.00 | 0.00 | 0.00 | 63 | 1014.0 |
| 20260831020201 | 81 | 73 | 3.0 | 5.0 | 0.00 | 0.00 | 0.00 | 62 | 1014.1 |
| 20260831015711 | 81 | 59 | 3.0 | 5.0 | 0.00 | 0.00 | 0.00 | 62 | 1014.0 |
| 20260831015308 | 82 | 37 | 3.0 | 5.0 | 0.00 | 0.00 | 0.00 | 62 | 1014.0 |
| 20260831015205 | 82 | 32 | 2.0 | 5.0 | 0.00 | 0.00 | 0.00 | 63 | 1014.0 |
| 20260831014715 | 82 | 63 | 4.0 | 7.0 | 0.00 | 0.00 | 0.00 | 59 | 1013.9 |
| 20260831014312 | 82 | 340 | 3.0 | 8.0 | 0.00 | 0.00 | 0.00 | 59 | 1014.0 |
| 20260831014204 | 82 | 146 | 4.0 | 8.0 | 0.00 | 0.00 | 0.00 | 59 | 1013.9 |
| 20260831013714 | 82 | 319 | 1.0 | 2.0 | 0.00 | 0.00 | 0.00 | 62 | 1013.9 |
| 20260831013311 | 83 | 284 | 1.0 | 4.0 | 0.00 | 0.00 | 0.00 | 63 | 1014.0 |
| 20260831013223 | 83 | 186 | 1.0 | 4.0 | 0.00 | 0.00 | 0.00 | 62 | 1014.0 |
| 20260831012711 | 83 | 83 | 0.0 | 4.0 | 0.00 | 0.00 | 0.00 | 61 | 1014.2 |
| 20260831012308 | 83 | 283 | 1.0 | 4.0 | 0.00 | 0.00 | 0.00 | 60 | 1014.4 |
| 20260831012200 | 83 | 283 | 2.0 | 4.0 | 0.00 | 0.00 | 0.00 | 61 | 1014.5 |
| 20260831011708 | 83 | 13 | 1.0 | 2.0 | 0.00 | 0.00 | 0.00 | 63 | 1014.5 |
| 20260831011325 | 84 | 107 | 2.0 | 2.0 | 0.00 | 0.00 | 0.00 | 61 | 1014.5 |
| 20260831011156 | 84 | 107 | 2.0 | 2.0 | 0.00 | 0.00 | 0.00 | 61 | 1014.5 |
| 20260831010707 | 84 | 53 | 0.0 | 3.0 | 0.00 | 0.00 | 0.00 | 59 | 1014.5 |
| 20260831010323 | 84 | 53 | 2.0 | 3.0 | 0.00 | 0.00 | 0.00 | 59 | 1014.3 |
| 20260831010213 | 84 | 53 | 2.0 | 3.0 | 0.00 | 0.00 | 0.00 | 59 | 1014.3 |
| 20260831005703 | 84 | 13 | 0.0 | 4.0 | 0.00 | 0.00 | 0.00 | 57 | 1014.2 |
| 20260831005259 | 85 | 13 | 1.0 | 4.0 | 0.00 | 0.00 | 0.00 | 59 | 1014.1 |
| 20260831005156 | 85 | 360 | 2.0 | 4.0 | 0.00 | 0.00 | 0.00 | 59 | 1014.0 |
| 20260831004707 | 85 | 55 | 2.0 | 5.0 | 0.00 | 0.00 | 0.00 | 58 | 1013.8 |
| 20260831004303 | 85 | 90 | 3.0 | 5.0 | 0.00 | 0.00 | 0.00 | 56 | 1013.7 |
| 20260831004156 | 86 | 84 | 3.0 | 4.0 | 0.00 | 0.00 | 0.00 | 56 | 1013.7 |
| 20260831003706 | 86 | 83 | 3.0 | 4.0 | 0.00 | 0.00 | 0.00 | 55 | 1013.6 |
| 20260831003324 | 87 | 87 | 3.0 | 6.0 | 0.00 | 0.00 | 0.00 | 54 | 1013.6 |
| 20260831003156 | 87 | 86 | 3.0 | 6.0 | 0.00 | 0.00 | 0.00 | 54 | 1013.6 |
| 20260831002706 | 87 | 82 | 3.0 | 9.0 | 0.00 | 0.00 | 0.00 | 52 | 1013.4 |
| 20260831002322 | 88 | 74 | 4.0 | 10.0 | 0.00 | 0.00 | 0.00 | 52 | 1013.4 |
| 20260831002213 | 88 | 84 | 4.0 | 10.0 | 0.00 | 0.00 | 0.00 | 52 | 1013.4 |
| 20260831001703 | 89 | 63 | 8.0 | 10.0 | 0.00 | 0.00 | 0.00 | 50 | 1013.3 |
| 20260831001319 | 90 | 67 | 7.0 | 9.0 | 0.00 | 0.00 | 0.00 | 49 | 1013.4 |
| 20260831001231 | 90 | 55 | 7.0 | 9.0 | 0.00 | 0.00 | 0.00 | 48 | 1013.4 |
| 20260831000659 | 90 | 80 | 4.0 | 6.0 | 0.00 | 0.00 | 0.00 | 46 | 1013.4 |
| 20260831000312 | 90 | 67 | 3.0 | 7.0 | 0.00 | 0.00 | 0.00 | 45 | 1013.4 |
| 20260831000203 | 90 | 86 | 2.0 | 6.0 | 0.00 | 0.00 | 0.00 | 45 | 1013.4 |
| 20260830235705 | 91 | 50 | 4.0 | 6.0 | 0.00 | 0.00 | 0.00 | 44 | 1013.4 |
| 20260830235301 | 91 | 81 | 3.0 | 7.0 | 0.00 | 0.00 | 0.00 | 45 | 1013.4 |
| 20260830235208 | 91 | 76 | 4.0 | 7.0 | 0.00 | 0.00 | 0.00 | 46 | 1013.4 |
| 20260830234657 | 91 | 81 | 5.0 | 9.0 | 0.00 | 0.00 | 0.00 | 45 | 1013.4 |
| 20260830234305 | 91 | 65 | 6.0 | 9.0 | 0.00 | 0.00 | 0.00 | 44 | 1013.4 |
| 20260830234156 | 91 | 64 | 5.0 | 9.0 | 0.00 | 0.00 | 0.00 | 44 | 1013.4 |
| 20260830233701 | 91 | 84 | 6.0 | 9.0 | 0.00 | 0.00 | 0.00 | 44 | 1013.4 |
| 20260830233314 | 91 | 79 | 3.0 | 8.0 | 0.00 | 0.00 | 0.00 | 44 | 1013.4 |
| 20260830233203 | 91 | 82 | 2.0 | 8.0 | 0.00 | 0.00 | 0.00 | 44 | 1013.3 |
| 20260830232706 | 91 | 55 | 5.0 | 7.0 | 0.00 | 0.00 | 0.00 | 43 | 1013.4 |
| 20260830232300 | 91 | 65 | 4.0 | 7.0 | 0.00 | 0.00 | 0.00 | 44 | 1013.3 |
| 20260830232207 | 91 | 90 | 5.0 | 7.0 | 0.00 | 0.00 | 0.00 | 44 | 1013.3 |
| 20260830231712 | 91 | 80 | 3.0 | 5.0 | 0.00 | 0.00 | 0.00 | 44 | 1013.3 |
| 20260830231305 | 91 | 186 | 1.0 | 8.0 | 0.00 | 0.00 | 0.00 | 43 | 1013.2 |
| 20260830231209 | 91 | 142 | 2.0 | 8.0 | 0.00 | 0.00 | 0.00 | 44 | 1013.2 |
| 20260830230714 | 91 | 78 | 4.0 | 8.0 | 0.00 | 0.00 | 0.00 | 45 | 1013.3 |
| 20260830230306 | 91 | 94 | 2.0 | 7.0 | 0.00 | 0.00 | 0.00 | 45 | 1013.3 |
| 20260830230235 | 91 | 72 | 2.0 | 7.0 | 0.00 | 0.00 | 0.00 | 45 | 1013.3 |
| 20260830225659 | 91 | 88 | 3.0 | 7.0 | 0.00 | 0.00 | 0.00 | 44 | 1013.3 |
| 20260830225312 | 91 | 97 | 4.0 | 6.0 | 0.00 | 0.00 | 0.00 | 43 | 1013.3 |
| 20260830225201 | 91 | 65 | 4.0 | 7.0 | 0.00 | 0.00 | 0.00 | 43 | 1013.3 |
| 20260830224701 | 91 | 63 | 3.0 | 6.0 | 0.00 | 0.00 | 0.00 | 46 | 1013.3 |
| 20260830224313 | 91 | 100 | 2.0 | 8.0 | 0.00 | 0.00 | 0.00 | 44 | 1013.3 |
| 20260830224221 | 91 | 76 | 2.0 | 8.0 | 0.00 | 0.00 | 0.00 | 43 | 1013.3 |
| 20260830223701 | 91 | 153 | 3.0 | 8.0 | 0.00 | 0.00 | 0.00 | 45 | 1013.3 |
| 20260830223334 | 91 | 53 | 2.0 | 6.0 | 0.00 | 0.00 | 0.00 | 46 | 1013.3 |
| 20260830223200 | 91 | 46 | 2.0 | 6.0 | 0.00 | 0.00 | 0.00 | 44 | 1013.3 |
| 20260830222704 | 92 | 20 | 2.0 | 6.0 | 0.00 | 0.00 | 0.00 | 43 | 1013.3 |
| 20260830222256 | 92 | 72 | 2.0 | 9.0 | 0.00 | 0.00 | 0.00 | 46 | 1013.3 |
| 20260830222210 | 92 | 119 | 3.0 | 10.0 | 0.00 | 0.00 | 0.00 | 44 | 1013.4 |
| 20260830221715 | 92 | 83 | 3.0 | 10.0 | 0.00 | 0.00 | 0.00 | 43 | 1013.4 |
| 20260830221307 | 93 | 74 | 5.0 | 10.0 | 0.00 | 0.00 | 0.00 | 43 | 1013.4 |
| 20260830221215 | 93 | 96 | 3.0 | 7.0 | 0.00 | 0.00 | 0.00 | 41 | 1013.4 |
| 20260830220659 | 93 | 17 | 1.0 | 7.0 | 0.00 | 0.00 | 0.00 | 45 | 1013.3 |
| 20260830220311 | 92 | 129 | 3.0 | 9.0 | 0.00 | 0.00 | 0.00 | 44 | 1013.3 |
| 20260830220159 | 92 | 172 | 3.0 | 9.0 | 0.00 | 0.00 | 0.00 | 44 | 1013.4 |
| 20260830215703 | 92 | 87 | 6.0 | 9.0 | 0.00 | 0.00 | 0.00 | 44 | 1013.4 |
| 20260830215336 | 92 | 65 | 2.0 | 7.0 | 0.00 | 0.00 | 0.00 | 44 | 1013.4 |
| 20260830215203 | 92 | 76 | 4.0 | 7.0 | 0.00 | 0.00 | 0.00 | 44 | 1013.4 |
| 20260830214706 | 92 | 68 | 3.0 | 6.0 | 0.00 | 0.00 | 0.00 | 45 | 1013.4 |
| 20260830214300 | 92 | 56 | 3.0 | 6.0 | 0.00 | 0.00 | 0.00 | 46 | 1013.4 |
| 20260830214208 | 92 | 33 | 4.0 | 6.0 | 0.00 | 0.00 | 0.00 | 46 | 1013.4 |
| 20260830213712 | 92 | 5 | 1.0 | 5.0 | 0.00 | 0.00 | 0.00 | 45 | 1013.5 |
| 20260830213307 | 92 | 71 | 3.0 | 8.0 | 0.00 | 0.00 | 0.00 | 45 | 1013.5 |
| 20260830213158 | 92 | 5 | 2.0 | 8.0 | 0.00 | 0.00 | 0.00 | 45 | 1013.5 |
| 20260830212702 | 92 | 56 | 4.0 | 8.0 | 0.00 | 0.00 | 0.00 | 46 | 1013.5 |
| 20260830212258 | 92 | 40 | 5.0 | 7.0 | 0.00 | 0.00 | 0.00 | 45 | 1013.5 |
| 20260830212207 | 92 | 59 | 5.0 | 7.0 | 0.00 | 0.00 | 0.00 | 45 | 1013.5 |
| 20260830211711 | 92 | 42 | 2.0 | 10.0 | 0.00 | 0.00 | 0.00 | 44 | 1013.6 |
| 20260830211305 | 92 | 51 | 4.0 | 10.0 | 0.00 | 0.00 | 0.00 | 45 | 1013.6 |
| 20260830211213 | 92 | 36 | 5.0 | 10.0 | 0.00 | 0.00 | 0.00 | 45 | 1013.7 |
| 20260830210701 | 92 | 18 | 5.0 | 9.0 | 0.00 | 0.00 | 0.00 | 46 | 1013.7 |
| 20260830210318 | 93 | 61 | 1.0 | 5.0 | 0.00 | 0.00 | 0.00 | 43 | 1013.7 |
| 20260830210208 | 93 | 65 | 1.0 | 5.0 | 0.00 | 0.00 | 0.00 | 43 | 1013.8 |
| 20260830205659 | 92 | 318 | 2.0 | 3.0 | 0.00 | 0.00 | 0.00 | 44 | 1013.8 |
| 20260830205311 | 92 | 351 | 2.0 | 3.0 | 0.00 | 0.00 | 0.00 | 46 | 1013.8 |
| 20260830205159 | 92 | 22 | 2.0 | 3.0 | 0.00 | 0.00 | 0.00 | 49 | 1013.9 |
| 20260830204703 | 92 | 329 | 1.0 | 5.0 | 0.00 | 0.00 | 0.00 | 43 | 1013.9 |
| 20260830204314 | 92 | 223 | 2.0 | 5.0 | 0.00 | 0.00 | 0.00 | 43 | 1014.0 |
| 20260830204203 | 92 | 211 | 3.0 | 5.0 | 0.00 | 0.00 | 0.00 | 43 | 1014.0 |
| 20260830203707 | 92 | 241 | 3.0 | 5.0 | 0.00 | 0.00 | 0.00 | 44 | 1014.0 |
| 20260830203258 | 92 | 307 | 2.0 | 4.0 | 0.00 | 0.00 | 0.00 | 44 | 1014.0 |
| 20260830203206 | 92 | 332 | 1.0 | 4.0 | 0.00 | 0.00 | 0.00 | 45 | 1014.0 |
| 20260830202730 | 92 | 72 | 2.0 | 5.0 | 0.00 | 0.00 | 0.00 | 49 | 1014.0 |
| 20260830202306 | 92 | 315 | 2.0 | 6.0 | 0.00 | 0.00 | 0.00 | 44 | 1014.0 |
| 20260830202218 | 92 | 271 | 2.0 | 6.0 | 0.00 | 0.00 | 0.00 | 44 | 1014.1 |
| 20260830201707 | 92 | 313 | 4.0 | 6.0 | 0.00 | 0.00 | 0.00 | 45 | 1014.1 |
| 20260830201324 | 92 | 328 | 3.0 | 8.0 | 0.00 | 0.00 | 0.00 | 46 | 1014.0 |
| 20260830201235 | 91 | 277 | 3.0 | 8.0 | 0.00 | 0.00 | 0.00 | 46 | 1014.0 |
| 20260830200724 | 91 | 275 | 4.0 | 8.0 | 0.00 | 0.00 | 0.00 | 49 | 1014.0 |
| 20260830200300 | 91 | 159 | 4.0 | 7.0 | 0.00 | 0.00 | 0.00 | 44 | 1014.0 |
| 20260830200157 | 91 | 178 | 4.0 | 7.0 | 0.00 | 0.00 | 0.00 | 44 | 1014.0 |
| 20260830195707 | 91 | 86 | 3.0 | 8.0 | 0.00 | 0.00 | 0.00 | 46 | 1014.1 |
| 20260830195305 | 91 | 318 | 2.0 | 8.0 | 0.00 | 0.00 | 0.00 | 47 | 1014.2 |
| 20260830195156 | 91 | 315 | 4.0 | 8.0 | 0.00 | 0.00 | 0.00 | 48 | 1014.2 |
| 20260830194707 | 91 | 47 | 4.0 | 12.0 | 0.00 | 0.00 | 0.00 | 50 | 1014.1 |
| 20260830194323 | 90 | 32 | 6.0 | 12.0 | 0.00 | 0.00 | 0.00 | 51 | 1014.1 |
| 20260830194213 | 90 | 61 | 5.0 | 12.0 | 0.00 | 0.00 | 0.00 | 50 | 1014.1 |
| 20260830193723 | 90 | 273 | 2.0 | 4.0 | 0.00 | 0.00 | 0.00 | 48 | 1014.1 |
| 20260830193318 | 90 | 150 | 2.0 | 5.0 | 0.00 | 0.00 | 0.00 | 47 | 1014.1 |
| 20260830193210 | 90 | 123 | 2.0 | 5.0 | 0.00 | 0.00 | 0.00 | 47 | 1014.1 |
| 20260830192659 | 90 | 37 | 3.0 | 6.0 | 0.00 | 0.00 | 0.00 | 46 | 1014.1 |
| 20260830192316 | 90 | 344 | 4.0 | 8.0 | 0.00 | 0.00 | 0.00 | 50 | 1014.2 |
| 20260830192207 | 90 | 329 | 3.0 | 8.0 | 0.00 | 0.00 | 0.00 | 51 | 1014.2 |
| 20260830191656 | 90 | 19 | 5.0 | 9.0 | 0.00 | 0.00 | 0.00 | 47 | 1014.2 |
| 20260830191313 | 90 | 355 | 5.0 | 9.0 | 0.00 | 0.00 | 0.00 | 50 | 1014.3 |
| 20260830191202 | 90 | 334 | 2.0 | 6.0 | 0.00 | 0.00 | 0.00 | 51 | 1014.3 |
| 20260830190731 | 90 | 64 | 4.0 | 6.0 | 0.00 | 0.00 | 0.00 | 47 | 1014.4 |
| 20260830190307 | 90 | 350 | 4.0 | 6.0 | 0.00 | 0.00 | 0.00 | 51 | 1014.4 |
| 20260830190220 | 90 | 360 | 3.0 | 6.0 | 0.00 | 0.00 | 0.00 | 50 | 1014.4 |
| 20260830185712 | 90 | 316 | 2.0 | 5.0 | 0.00 | 0.00 | 0.00 | 48 | 1014.4 |
| 20260830185306 | 89 | 300 | 3.0 | 7.0 | 0.00 | 0.00 | 0.00 | 49 | 1014.5 |
| 20260830185202 | 89 | 319 | 3.0 | 7.0 | 0.00 | 0.00 | 0.00 | 51 | 1014.4 |
| 20260830184712 | 89 | 220 | 4.0 | 7.0 | 0.00 | 0.00 | 0.00 | 48 | 1014.5 |
| 20260830184307 | 89 | 246 | 3.0 | 7.0 | 0.00 | 0.00 | 0.00 | 52 | 1014.6 |
| 20260830184220 | 89 | 266 | 2.0 | 7.0 | 0.00 | 0.00 | 0.00 | 49 | 1014.6 |
| 20260830183709 | 88 | 257 | 1.0 | 5.0 | 0.00 | 0.00 | 0.00 | 50 | 1014.6 |
| 20260830183326 | 88 | 37 | 1.0 | 5.0 | 0.00 | 0.00 | 0.00 | 50 | 1014.7 |
| 20260830183159 | 88 | 30 | 2.0 | 5.0 | 0.00 | 0.00 | 0.00 | 50 | 1014.7 |
| 20260830182728 | 88 | 5 | 3.0 | 5.0 | 0.00 | 0.00 | 0.00 | 50 | 1014.8 |
| 20260830182306 | 87 | 167 | 2.0 | 5.0 | 0.00 | 0.00 | 0.00 | 49 | 1014.8 |
| 20260830182158 | 87 | 172 | 2.0 | 5.0 | 0.00 | 0.00 | 0.00 | 49 | 1014.8 |
| 20260830181707 | 87 | 175 | 2.0 | 6.0 | 0.00 | 0.00 | 0.00 | 50 | 1014.8 |
| 20260830181304 | 87 | 232 | 2.0 | 6.0 | 0.00 | 0.00 | 0.00 | 51 | 1014.8 |
| 20260830181157 | 87 | 315 | 4.0 | 6.0 | 0.00 | 0.00 | 0.00 | 53 | 1014.8 |
| 20260830180708 | 87 | 5 | 1.0 | 6.0 | 0.00 | 0.00 | 0.00 | 54 | 1014.9 |
| 20260830180257 | 87 | 49 | 1.0 | 6.0 | 0.00 | 0.00 | 0.00 | 53 | 1015.0 |
| 20260830180211 | 87 | 334 | 2.0 | 6.0 | 0.00 | 0.00 | 0.00 | 53 | 1015.1 |
| 20260830175703 | 86 | 19 | 3.0 | 4.0 | 0.00 | 0.00 | 0.00 | 55 | 1015.1 |
| 20260830175259 | 86 | 355 | 1.0 | 3.0 | 0.00 | 0.00 | 0.00 | 53 | 1015.3 |
| 20260830175232 | 86 | 316 | 1.0 | 4.0 | 0.00 | 0.00 | 0.00 | 58 | 1015.3 |
| 20260830174700 | 85 | 229 | 1.0 | 4.0 | 0.00 | 0.00 | 0.00 | 52 | 1015.3 |
| 20260830174317 | 85 | 328 | 2.0 | 4.0 | 0.00 | 0.00 | 0.00 | 54 | 1015.3 |
| 20260830174209 | 85 | 45 | 2.0 | 4.0 | 0.00 | 0.00 | 0.00 | 59 | 1015.3 |
| 20260830173657 | 85 | 309 | 1.0 | 5.0 | 0.00 | 0.00 | 0.00 | 54 | 1015.2 |
| 20260830173333 | 84 | 319 | 2.0 | 5.0 | 0.00 | 0.00 | 0.00 | 58 | 1015.1 |
| 20260830173206 | 84 | 5 | 3.0 | 5.0 | 0.00 | 0.00 | 0.00 | 57 | 1015.2 |
| 20260830172715 | 84 | 34 | 2.0 | 5.0 | 0.00 | 0.00 | 0.00 | 59 | 1015.2 |
| 20260830172312 | 83 | 34 | 3.0 | 6.0 | 0.00 | 0.00 | 0.00 | 60 | 1015.2 |
| 20260830172205 | 83 | 322 | 3.0 | 6.0 | 0.00 | 0.00 | 0.00 | 60 | 1015.3 |
| 20260830171715 | 82 | 355 | 3.0 | 9.0 | 0.00 | 0.00 | 0.00 | 57 | 1015.3 |
| 20260830171312 | 82 | 16 | 3.0 | 9.0 | 0.00 | 0.00 | 0.00 | 59 | 1015.4 |
| 20260830171206 | 82 | 11 | 4.0 | 9.0 | 0.00 | 0.00 | 0.00 | 60 | 1015.4 |
| 20260830170719 | 81 | 344 | 3.0 | 6.0 | 0.00 | 0.00 | 0.00 | 63 | 1015.4 |
| 20260830170311 | 81 | 355 | 3.0 | 5.0 | 0.00 | 0.00 | 0.00 | 60 | 1015.3 |
| 20260830170209 | 81 | 336 | 3.0 | 5.0 | 0.00 | 0.00 | 0.00 | 61 | 1015.3 |
| 20260830165658 | 81 | 329 | 2.0 | 8.0 | 0.00 | 0.00 | 0.00 | 59 | 1015.4 |
| 20260830165335 | 81 | 350 | 3.0 | 9.0 | 0.00 | 0.00 | 0.00 | 60 | 1015.4 |
| 20260830165206 | 81 | 15 | 3.0 | 9.0 | 0.00 | 0.00 | 0.00 | 61 | 1015.3 |
| 20260830164656 | 81 | 323 | 6.0 | 10.0 | 0.00 | 0.00 | 0.00 | 61 | 1015.3 |
| 20260830164312 | 81 | 339 | 5.0 | 11.0 | 0.00 | 0.00 | 0.00 | 61 | 1015.3 |
| 20260830164204 | 81 | 336 | 5.0 | 11.0 | 0.00 | 0.00 | 0.00 | 61 | 1015.3 |
| 20260830163714 | 81 | 329 | 7.0 | 10.0 | 0.00 | 0.00 | 0.00 | 60 | 1015.4 |
| 20260830163309 | 81 | 337 | 5.0 | 10.0 | 0.00 | 0.00 | 0.00 | 61 | 1015.4 |
| 20260830163200 | 81 | 325 | 4.0 | 9.0 | 0.00 | 0.00 | 0.00 | 63 | 1015.5 |
| 20260830162709 | 80 | 327 | 5.0 | 10.0 | 0.00 | 0.00 | 0.00 | 67 | 1015.4 |
| 20260830162327 | 78 | 322 | 8.0 | 10.0 | 0.00 | 0.00 | 0.00 | 67 | 1015.4 |
| 20260830162158 | 78 | 355 | 6.0 | 10.0 | 0.00 | 0.00 | 0.00 | 67 | 1015.4 |
| 20260830161708 | 78 | 11 | 5.0 | 10.0 | 0.00 | 0.00 | 0.00 | 69 | 1015.4 |
| 20260830161306 | 77 | 319 | 8.0 | 11.0 | 0.00 | 0.00 | 0.00 | 66 | 1015.3 |
| 20260830161222 | 77 | 345 | 6.0 | 11.0 | 0.00 | 0.00 | 0.00 | 66 | 1015.4 |
| 20260830160732 | 77 | 334 | 9.0 | 11.0 | 0.00 | 0.00 | 0.00 | 67 | 1015.4 |
| 20260830160303 | 77 | 5 | 8.0 | 11.0 | 0.00 | 0.00 | 0.00 | 67 | 1015.4 |
| 20260830160200 | 77 | 326 | 7.0 | 11.0 | 0.00 | 0.00 | 0.00 | 67 | 1015.4 |
| 20260830155710 | 76 | 339 | 9.0 | 12.0 | 0.00 | 0.00 | 0.00 | 67 | 1015.2 |
| 20260830155327 | 76 | 348 | 7.0 | 12.0 | 0.00 | 0.00 | 0.00 | 67 | 1015.1 |
| 20260830155158 | 76 | 332 | 9.0 | 12.0 | 0.00 | 0.00 | 0.00 | 67 | 1015.1 |
| 20260830154709 | 76 | 319 | 7.0 | 10.0 | 0.00 | 0.00 | 0.00 | 68 | 1015.1 |
| 20260830154306 | 75 | 304 | 9.0 | 10.0 | 0.00 | 0.00 | 0.00 | 69 | 1015.3 |
| 20260830154159 | 75 | 316 | 8.0 | 10.0 | 0.00 | 0.00 | 0.00 | 70 | 1015.3 |
| 20260830153709 | 75 | 299 | 7.0 | 12.0 | 0.00 | 0.00 | 0.00 | 68 | 1015.3 |
| 20260830153305 | 75 | 325 | 8.0 | 12.0 | 0.00 | 0.00 | 0.00 | 69 | 1015.1 |
| 20260830153158 | 75 | 310 | 6.0 | 10.0 | 0.00 | 0.00 | 0.00 | 69 | 1015.1 |
| 20260830152727 | 75 | 330 | 6.0 | 11.0 | 0.00 | 0.00 | 0.00 | 70 | 1014.7 |
| 20260830152306 | 75 | 5 | 7.0 | 11.0 | 0.00 | 0.00 | 0.00 | 70 | 1014.6 |
| 20260830152215 | 75 | 12 | 7.0 | 11.0 | 0.00 | 0.00 | 0.00 | 70 | 1014.6 |
| 20260830151709 | 74 | 332 | 5.0 | 9.0 | 0.00 | 0.00 | 0.00 | 71 | 1014.8 |
| 20260830151301 | 74 | 319 | 6.0 | 10.0 | 0.00 | 0.00 | 0.00 | 73 | 1015.0 |
| 20260830151215 | 74 | 330 | 6.0 | 10.0 | 0.00 | 0.00 | 0.00 | 73 | 1015.1 |
| 20260830150705 | 74 | 315 | 6.0 | 10.0 | 0.00 | 0.00 | 0.00 | 71 | 1015.0 |
| 20260830150301 | 74 | 348 | 5.0 | 9.0 | 0.00 | 0.00 | 0.00 | 73 | 1014.8 |
| 20260830150215 | 74 | 350 | 5.0 | 9.0 | 0.00 | 0.00 | 0.00 | 73 | 1014.8 |
| 20260830145704 | 74 | 339 | 5.0 | 9.0 | 0.00 | 0.00 | 0.00 | 73 | 1014.8 |
| 20260830145322 | 74 | 331 | 5.0 | 9.0 | 0.00 | 0.00 | 0.00 | 73 | 1014.8 |
| 20260830145213 | 74 | 333 | 5.0 | 10.0 | 0.00 | 0.00 | 0.00 | 72 | 1014.8 |
| 20260830144704 | 74 | 306 | 5.0 | 11.0 | 0.00 | 0.00 | 0.00 | 71 | 1014.8 |
| 20260830144259 | 74 | 313 | 6.0 | 11.0 | 0.00 | 0.00 | 0.00 | 70 | 1014.9 |
| 20260830144233 | 74 | 325 | 7.0 | 11.0 | 0.00 | 0.00 | 0.00 | 71 | 1014.8 |
| 20260830143722 | 74 | 331 | 9.0 | 13.0 | 0.00 | 0.00 | 0.00 | 69 | 1014.6 |
| 20260830143258 | 74 | 343 | 7.0 | 13.0 | 0.00 | 0.00 | 0.00 | 70 | 1014.6 |
| 20260830143210 | 74 | 329 | 8.0 | 13.0 | 0.00 | 0.00 | 0.00 | 70 | 1014.6 |
| 20260830142659 | 73 | 331 | 9.0 | 11.0 | 0.00 | 0.00 | 0.00 | 73 | 1014.5 |
| 20260830142337 | 73 | 299 | 7.0 | 12.0 | 0.00 | 0.00 | 0.00 | 75 | 1014.6 |
| 20260830142209 | 73 | 304 | 7.0 | 12.0 | 0.00 | 0.00 | 0.00 | 75 | 1014.5 |
| 20260830141703 | 72 | 294 | 8.0 | 13.0 | 0.00 | 0.00 | 0.00 | 75 | 1014.5 |
| 20260830141258 | 72 | 297 | 9.0 | 13.0 | 0.00 | 0.00 | 0.00 | 74 | 1014.5 |
| 20260830141210 | 72 | 321 | 9.0 | 13.0 | 0.00 | 0.00 | 0.00 | 76 | 1014.5 |
| 20260830140719 | 71 | 319 | 8.0 | 10.0 | 0.00 | 0.00 | 0.00 | 77 | 1014.3 |
| 20260830140314 | 71 | 317 | 7.0 | 9.0 | 0.00 | 0.00 | 0.00 | 76 | 1014.3 |
| 20260830140208 | 71 | 312 | 7.0 | 9.0 | 0.00 | 0.00 | 0.00 | 76 | 1014.2 |
| 20260830135719 | 70 | 285 | 4.0 | 16.0 | 0.00 | 0.00 | 0.00 | 77 | 1014.4 |
| 20260830135314 | 70 | 311 | 8.0 | 16.0 | 0.00 | 0.00 | 0.00 | 77 | 1014.3 |
| 20260830135206 | 70 | 338 | 10.0 | 16.0 | 0.00 | 0.00 | 0.00 | 78 | 1014.1 |
| 20260830134736 | 69 | 326 | 11.0 | 15.0 | 0.00 | 0.00 | 0.00 | 79 | 1014.0 |
| 20260830134312 | 69 | 304 | 8.0 | 13.0 | 0.00 | 0.00 | 0.00 | 80 | 1014.4 |
| 20260830134205 | 69 | 316 | 8.0 | 13.0 | 0.00 | 0.00 | 0.00 | 81 | 1014.3 |
| 20260830133715 | 68 | 312 | 9.0 | 12.0 | 0.00 | 0.00 | 0.00 | 81 | 1014.3 |
| 20260830133310 | 68 | 305 | 9.0 | 12.0 | 0.00 | 0.00 | 0.00 | 80 | 1014.3 |
| 20260830133204 | 68 | 317 | 8.0 | 10.0 | 0.00 | 0.00 | 0.00 | 81 | 1014.3 |
| 20260830132713 | 68 | 313 | 6.0 | 10.0 | 0.00 | 0.00 | 0.00 | 81 | 1014.3 |
| 20260830132307 | 67 | 296 | 7.0 | 10.0 | 0.00 | 0.00 | 0.00 | 82 | 1014.3 |
| 20260830132205 | 67 | 281 | 6.0 | 10.0 | 0.00 | 0.00 | 0.00 | 82 | 1014.2 |
| 20260830131715 | 67 | 339 | 7.0 | 10.0 | 0.00 | 0.00 | 0.00 | 83 | 1014.1 |
| 20260830131312 | 66 | 327 | 5.0 | 10.0 | 0.00 | 0.00 | 0.00 | 83 | 1013.8 |
| 20260830131203 | 66 | 320 | 7.0 | 10.0 | 0.00 | 0.00 | 0.00 | 83 | 1013.8 |
| 20260830130713 | 66 | 309 | 5.0 | 8.0 | 0.00 | 0.00 | 0.00 | 84 | 1013.8 |
| 20260830130308 | 66 | 305 | 6.0 | 8.0 | 0.00 | 0.00 | 0.00 | 84 | 1013.8 |
| 20260830130201 | 66 | 300 | 6.0 | 8.0 | 0.00 | 0.00 | 0.00 | 84 | 1013.8 |
| 20260830125710 | 65 | 311 | 5.0 | 11.0 | 0.00 | 0.00 | 0.00 | 85 | 1013.9 |
| 20260830125327 | 65 | 317 | 7.0 | 11.0 | 0.00 | 0.00 | 0.00 | 85 | 1013.8 |
| 20260830125158 | 65 | 308 | 8.0 | 11.0 | 0.00 | 0.00 | 0.00 | 86 | 1013.8 |
| 20260830124704 | 65 | 318 | 7.0 | 11.0 | 0.00 | 0.00 | 0.00 | 86 | 1013.8 |
| 20260830124301 | 65 | 302 | 8.0 | 11.0 | 0.00 | 0.00 | 0.00 | 85 | 1013.8 |
| 20260830124214 | 65 | 311 | 9.0 | 11.0 | 0.00 | 0.00 | 0.00 | 85 | 1013.8 |
| 20260830123724 | 65 | 302 | 8.0 | 10.0 | 0.00 | 0.00 | 0.00 | 85 | 1013.8 |
| 20260830123318 | 65 | 309 | 5.0 | 8.0 | 0.00 | 0.00 | 0.00 | 85 | 1013.7 |
| 20260830123209 | 65 | 304 | 4.0 | 8.0 | 0.00 | 0.00 | 0.00 | 85 | 1013.7 |
| 20260830122703 | 65 | 309 | 2.0 | 5.0 | 0.00 | 0.00 | 0.00 | 85 | 1013.8 |
| 20260830122300 | 65 | 261 | 3.0 | 5.0 | 0.00 | 0.00 | 0.00 | 85 | 1013.8 |
| 20260830122213 | 65 | 302 | 3.0 | 5.0 | 0.00 | 0.00 | 0.00 | 85 | 1013.8 |
| 20260830121701 | 65 | 206 | 2.0 | 4.0 | 0.00 | 0.00 | 0.00 | 84 | 1013.8 |
| 20260830121258 | 65 | 190 | 2.0 | 5.0 | 0.00 | 0.00 | 0.00 | 84 | 1013.8 |
| 20260830121212 | 65 | 207 | 2.0 | 8.0 | 0.00 | 0.00 | 0.00 | 84 | 1013.7 |
| 20260830120701 | 65 | 273 | 2.0 | 11.0 | 0.00 | 0.00 | 0.00 | 84 | 1013.6 |
| 20260830120258 | 65 | 297 | 5.0 | 12.0 | 0.00 | 0.00 | 0.00 | 84 | 1013.5 |
| 20260830120211 | 65 | 262 | 6.0 | 12.0 | 0.00 | 0.00 | 0.00 | 84 | 1013.5 |
| 20260830115700 | 65 | 319 | 8.0 | 12.0 | 0.00 | 0.00 | 0.00 | 84 | 1013.4 |
| 20260830115316 | 65 | 336 | 7.0 | 13.0 | 0.00 | 0.00 | 0.00 | 85 | 1013.3 |
| 20260830115230 | 65 | 309 | 7.0 | 13.0 | 0.00 | 0.00 | 0.00 | 85 | 1013.3 |
| 20260830114658 | 65 | 309 | 9.0 | 13.0 | 0.00 | 0.00 | 0.00 | 85 | 1013.3 |
| 20260830114315 | 65 | 303 | 10.0 | 12.0 | 0.00 | 0.00 | 0.00 | 85 | 1013.3 |
| 20260830114211 | 65 | 316 | 10.0 | 13.0 | 0.00 | 0.00 | 0.00 | 85 | 1013.3 |
| 20260830113700 | 64 | 310 | 9.0 | 14.0 | 0.00 | 0.00 | 0.00 | 85 | 1013.3 |
| 20260830113316 | 64 | 344 | 11.0 | 14.0 | 0.00 | 0.00 | 0.00 | 85 | 1013.2 |
| 20260830113207 | 64 | 312 | 10.0 | 12.0 | 0.00 | 0.00 | 0.00 | 86 | 1013.2 |
| 20260830112657 | 64 | 326 | 8.0 | 11.0 | 0.00 | 0.00 | 0.00 | 86 | 1013.3 |
| 20260830112314 | 64 | 327 | 8.0 | 11.0 | 0.00 | 0.00 | 0.00 | 87 | 1013.4 |
| 20260830112208 | 64 | 317 | 7.0 | 11.0 | 0.00 | 0.00 | 0.00 | 87 | 1013.4 |
| 20260830111717 | 64 | 309 | 9.0 | 11.0 | 0.00 | 0.00 | 0.00 | 87 | 1013.4 |
| 20260830111311 | 64 | 306 | 8.0 | 11.0 | 0.00 | 0.00 | 0.00 | 87 | 1013.4 |
| 20260830111224 | 64 | 311 | 7.0 | 11.0 | 0.00 | 0.00 | 0.00 | 87 | 1013.4 |
| 20260830110714 | 64 | 319 | 6.0 | 11.0 | 0.00 | 0.00 | 0.00 | 87 | 1013.3 |
| 20260830110311 | 64 | 319 | 5.0 | 9.0 | 0.00 | 0.00 | 0.00 | 87 | 1013.3 |
| 20260830110204 | 64 | 317 | 7.0 | 10.0 | 0.00 | 0.00 | 0.00 | 87 | 1013.3 |
| 20260830105714 | 64 | 297 | 6.0 | 10.0 | 0.00 | 0.00 | 0.00 | 87 | 1013.2 |
| 20260830105311 | 64 | 320 | 9.0 | 11.0 | 0.00 | 0.00 | 0.00 | 87 | 1013.3 |
| 20260830105206 | 64 | 313 | 8.0 | 11.0 | 0.00 | 0.00 | 0.00 | 87 | 1013.3 |
| 20260830104736 | 64 | 335 | 7.0 | 11.0 | 0.00 | 0.00 | 0.00 | 87 | 1013.2 |
| 20260830104307 | 64 | 324 | 6.0 | 10.0 | 0.00 | 0.00 | 0.00 | 86 | 1013.2 |
| 20260830104204 | 64 | 306 | 6.0 | 10.0 | 0.00 | 0.00 | 0.00 | 86 | 1013.2 |
| 20260830103713 | 64 | 321 | 5.0 | 6.0 | 0.00 | 0.00 | 0.00 | 85 | 1013.2 |
| 20260830103330 | 64 | 326 | 4.0 | 8.0 | 0.00 | 0.00 | 0.00 | 85 | 1013.0 |
| 20260830103201 | 64 | 316 | 4.0 | 8.0 | 0.00 | 0.00 | 0.00 | 85 | 1013.1 |
| 20260830102712 | 65 | 323 | 4.0 | 8.0 | 0.00 | 0.00 | 0.00 | 85 | 1013.3 |
| 20260830102308 | 65 | 321 | 5.0 | 8.0 | 0.00 | 0.00 | 0.00 | 85 | 1013.4 |
| 20260830102200 | 65 | 331 | 5.0 | 8.0 | 0.00 | 0.00 | 0.00 | 85 | 1013.3 |
| 20260830101709 | 65 | 309 | 5.0 | 8.0 | 0.00 | 0.00 | 0.00 | 85 | 1013.4 |
| 20260830101306 | 65 | 305 | 4.0 | 6.0 | 0.00 | 0.00 | 0.00 | 85 | 1013.4 |
| 20260830101159 | 65 | 310 | 4.0 | 6.0 | 0.00 | 0.00 | 0.00 | 84 | 1013.5 |
| 20260830100708 | 65 | 311 | 4.0 | 8.0 | 0.00 | 0.00 | 0.00 | 84 | 1013.5 |
| 20260830100325 | 66 | 303 | 5.0 | 8.0 | 0.00 | 0.00 | 0.00 | 84 | 1013.6 |
| 20260830100157 | 66 | 304 | 5.0 | 8.0 | 0.00 | 0.00 | 0.00 | 83 | 1013.5 |
| 20260830095712 | 66 | 311 | 5.0 | 6.0 | 0.00 | 0.00 | 0.00 | 84 | 1013.5 |
| 20260830095306 | 66 | 305 | 5.0 | 7.0 | 0.00 | 0.00 | 0.00 | 83 | 1013.5 |
| 20260830095201 | 66 | 309 | 4.0 | 6.0 | 0.00 | 0.00 | 0.00 | 83 | 1013.6 |
| 20260830094711 | 66 | 320 | 4.0 | 6.0 | 0.00 | 0.00 | 0.00 | 82 | 1013.4 |
| 20260830094309 | 66 | 331 | 4.0 | 6.0 | 0.00 | 0.00 | 0.00 | 82 | 1013.3 |
| 20260830094202 | 66 | 326 | 4.0 | 5.0 | 0.00 | 0.00 | 0.00 | 82 | 1013.4 |
| 20260830093711 | 66 | 335 | 3.0 | 6.0 | 0.00 | 0.00 | 0.00 | 82 | 1013.3 |
| 20260830093328 | 66 | 346 | 3.0 | 6.0 | 0.00 | 0.00 | 0.00 | 82 | 1013.3 |
| 20260830093200 | 66 | 5 | 4.0 | 6.0 | 0.00 | 0.00 | 0.00 | 82 | 1013.3 |
| 20260830092711 | 66 | 351 | 4.0 | 6.0 | 0.00 | 0.00 | 0.00 | 82 | 1013.3 |